Location: Goulburn
(34.7479°S, 149.7277°E)
Time: 17:28:34
(UTC+11:00)

LightSail 2 - Pass Details

Date: 27 October 2019
Orbit: 701 x 726 km, 24.0° (Epoch: 13 November)

Event Time Altitude Azimuth Distance (km) Brightness Sun altitude
Exits shadow 04:51:45 16° 334° (NNW) 1,829 6.8 -14.9°
Maximum altitude 04:52:32 17° 345° (NNW) 1,801 6.8 -14.8°
Drops below altitude 10° 04:55:48 10° 24° (NNE) 2,211 7.7 -14.2°
Sets 04:59:04 0° 44° (NE) 3,126 8.7 -13.6°
